N8029B KCMA-KFUL

Flight info

Callsign N8029B
Flight time N/A
Altitude 5000
Route ACRAT GINNA V326 VNY V186 ITSME V264 POM LEYMI HAVUR AKTAQ
Aircraft C210/L-SFG/C

Departure

Time 2026-05-06 00:39
Airport Camarillo International Airport (KCMA)

Arrival

Time N/A
Airport Fullerton Municipal Airport (KFUL)
Time Latitude Longitude Altitude Speed Heading
2026-05-06 00:25 34.20999 -119.07811 81 ft 0 kts 90°
2026-05-06 00:30 34.21009 -119.07798 81 ft 3 kts
2026-05-06 00:31 34.21019 -119.07798 81 ft 0 kts 359°
2026-05-06 00:31 34.21054 -119.07795 81 ft 8 kts
2026-05-06 00:31 34.21097 -119.07793 82 ft 3 kts 360°
2026-05-06 00:32 34.21124 -119.07831 81 ft 8 kts 274°
2026-05-06 00:32 34.21125 -119.07880 81 ft 3 kts 266°
2026-05-06 00:32 34.21125 -119.07929 81 ft 8 kts 268°
2026-05-06 00:32 34.21126 -119.08019 80 ft 12 kts 271°
2026-05-06 00:33 34.21127 -119.08135 79 ft 12 kts 270°
2026-05-06 00:33 34.21128 -119.08212 79 ft 6 kts 270°
2026-05-06 00:33 34.21128 -119.08273 78 ft 8 kts 270°
2026-05-06 00:33 34.21129 -119.08348 78 ft 9 kts 278°
2026-05-06 00:34 34.21179 -119.08397 77 ft 10 kts
2026-05-06 00:34 34.21212 -119.08402 77 ft 2 kts 300°
2026-05-06 00:34 34.21221 -119.08417 77 ft 1 kts 313°
2026-05-06 00:34 34.21225 -119.08421 77 ft 0 kts 317°
2026-05-06 00:36 34.21233 -119.08429 77 ft 0 kts 318°
2026-05-06 00:36 34.21274 -119.08458 77 ft 10 kts 348°
2026-05-06 00:37 34.21290 -119.08460 77 ft 1 kts 351°
2026-05-06 00:37 34.21328 -119.08459 77 ft 7 kts 358°
2026-05-06 00:37 34.21360 -119.08464 77 ft 2 kts 332°
2026-05-06 00:37 34.21374 -119.08518 77 ft 14 kts 268°
2026-05-06 00:38 34.21373 -119.08785 75 ft 51 kts 269°
2026-05-06 00:38 34.21395 -119.09286 155 ft 58 kts 268°
2026-05-06 00:38 34.21434 -119.09723 319 ft 49 kts 261°
2026-05-06 00:38 34.21406 -119.10144 428 ft 53 kts 253°
2026-05-06 00:39 34.21171 -119.10483 542 ft 61 kts 202°
2026-05-06 00:39 34.20705 -119.10428 674 ft 76 kts 153°
2026-05-06 00:39 34.20376 -119.09922 807 ft 80 kts 104°
2026-05-06 00:39 34.20421 -119.09272 914 ft 78 kts 58°
2026-05-06 00:40 34.20680 -119.08696 1006 ft 79 kts 50°
2026-05-06 00:40 34.20857 -119.08039 1100 ft 83 kts 72°
2026-05-06 00:40 34.20953 -119.07343 1206 ft 85 kts 75°
2026-05-06 00:40 34.21032 -119.06619 1334 ft 89 kts 76°
2026-05-06 00:41 34.21103 -119.05860 1484 ft 91 kts 77°
2026-05-06 00:41 34.21174 -119.05048 1556 ft 105 kts 78°
2026-05-06 00:41 34.21252 -119.04132 1674 ft 112 kts 79°
2026-05-06 00:41 34.21324 -119.03181 1834 ft 114 kts 79°
2026-05-06 00:42 34.21395 -119.02222 2003 ft 116 kts 79°
2026-05-06 00:42 34.21468 -119.01258 2177 ft 116 kts 80°
2026-05-06 00:42 34.21542 -119.00285 2355 ft 117 kts 79°
2026-05-06 00:42 34.21618 -118.99299 2538 ft 117 kts 79°
2026-05-06 00:43 34.21692 -118.98332 2716 ft 117 kts 79°
2026-05-06 00:43 34.21753 -118.97347 2897 ft 118 kts 81°
2026-05-06 00:43 34.21792 -118.96348 3086 ft 118 kts 81°
2026-05-06 00:43 34.21831 -118.95362 3274 ft 119 kts 81°
2026-05-06 00:44 34.21869 -118.94361 3457 ft 119 kts 81°
2026-05-06 00:44 34.21909 -118.93369 3641 ft 119 kts 82°
2026-05-06 00:44 34.21947 -118.92363 3825 ft 118 kts 82°
2026-05-06 00:44 34.21985 -118.91393 3993 ft 115 kts 82°
2026-05-06 00:45 34.22022 -118.90445 4149 ft 113 kts 81°
2026-05-06 00:45 34.22058 -118.89494 4300 ft 113 kts 81°
2026-05-06 00:45 34.22095 -118.88545 4450 ft 112 kts 81°
2026-05-06 00:45 34.22133 -118.87599 4604 ft 112 kts 81°
2026-05-06 00:46 34.22171 -118.86669 4756 ft 111 kts 81°
2026-05-06 00:46 34.22206 -118.85739 4904 ft 111 kts 81°
2026-05-06 00:46 34.22245 -118.84784 4980 ft 119 kts 80°
2026-05-06 00:46 34.22292 -118.83746 4990 ft 130 kts 82°
2026-05-06 00:47 34.22322 -118.82600 4990 ft 140 kts 85°
2026-05-06 00:47 34.22320 -118.81390 4989 ft 147 kts 85°
2026-05-06 00:47 34.22318 -118.80129 4988 ft 152 kts 85°
2026-05-06 00:47 34.22319 -118.78843 4984 ft 153 kts 86°
2026-05-06 00:48 34.22319 -118.77546 4981 ft 154 kts 86°
2026-05-06 00:48 34.22322 -118.76253 4982 ft 154 kts 86°
2026-05-06 00:48 34.22324 -118.74946 4982 ft 155 kts 86°
2026-05-06 00:48 34.22324 -118.73637 4982 ft 156 kts 86°
2026-05-06 00:49 34.22329 -118.72325 4982 ft 157 kts 86°
2026-05-06 00:49 34.22331 -118.71001 4981 ft 157 kts 86°
2026-05-06 00:49 34.22333 -118.69679 4979 ft 157 kts 86°
2026-05-06 00:49 34.22335 -118.68351 4978 ft 157 kts 86°
2026-05-06 00:50 34.22336 -118.67024 4981 ft 157 kts 86°
2026-05-06 00:50 34.22337 -118.65704 4981 ft 158 kts 86°
2026-05-06 00:50 34.22340 -118.64373 4983 ft 158 kts 86°
2026-05-06 00:50 34.22343 -118.63058 4980 ft 158 kts 86°
2026-05-06 00:51 34.22343 -118.61718 4979 ft 158 kts 86°
2026-05-06 00:51 34.22343 -118.60402 4979 ft 158 kts 86°
2026-05-06 00:51 34.22345 -118.59070 4978 ft 159 kts 86°
2026-05-06 00:51 34.22345 -118.57732 4978 ft 159 kts 86°
2026-05-06 00:52 34.22347 -118.56401 4977 ft 159 kts 86°
2026-05-06 00:52 34.22348 -118.55071 4976 ft 159 kts 86°
2026-05-06 00:52 34.22349 -118.53732 4979 ft 158 kts 86°
2026-05-06 00:52 34.22349 -118.52415 4980 ft 158 kts 86°
2026-05-06 00:53 34.22351 -118.51083 4979 ft 158 kts 86°
2026-05-06 00:53 34.22351 -118.49750 4981 ft 158 kts 86°
2026-05-06 00:53 34.22187 -118.48433 4974 ft 160 kts 105°
2026-05-06 00:53 34.21804 -118.47166 4979 ft 160 kts 108°
2026-05-06 00:54 34.21406 -118.45902 4980 ft 160 kts 108°
2026-05-06 00:54 34.21012 -118.44649 4979 ft 160 kts 108°
2026-05-06 00:54 34.20621 -118.43391 4982 ft 160 kts 108°
2026-05-06 00:54 34.20235 -118.42139 4983 ft 160 kts 108°
2026-05-06 00:55 34.19843 -118.40865 4984 ft 159 kts 108°
2026-05-06 00:55 34.19459 -118.39616 4981 ft 159 kts 108°
2026-05-06 00:55 34.19075 -118.38364 4979 ft 159 kts 108°
2026-05-06 00:55 34.18692 -118.37106 4979 ft 160 kts 107°
2026-05-06 00:56 34.18307 -118.35839 4982 ft 159 kts 107°
2026-05-06 00:56 34.17550 -118.33333 4982 ft 159 kts 108°
2026-05-06 00:56 34.17167 -118.32079 4985 ft 159 kts 108°
2026-05-06 00:57 34.16785 -118.30821 4985 ft 158 kts 108°
2026-05-06 00:57 34.16405 -118.29573 4983 ft 159 kts 108°
2026-05-06 00:57 34.16023 -118.28321 4983 ft 158 kts 108°
2026-05-06 00:57 34.15643 -118.27071 4983 ft 158 kts 108°
2026-05-06 00:58 34.15264 -118.25829 4981 ft 158 kts 109°
2026-05-06 00:58 34.14885 -118.24584 4982 ft 158 kts 108°
2026-05-06 00:58 34.14504 -118.23341 4981 ft 158 kts 108°
2026-05-06 00:58 34.14125 -118.22102 4981 ft 158 kts 108°
2026-05-06 00:59 34.13744 -118.20849 4982 ft 157 kts 108°
2026-05-06 00:59 34.13363 -118.19600 4981 ft 158 kts 108°
2026-05-06 00:59 34.12986 -118.18363 4982 ft 158 kts 108°
2026-05-06 00:59 34.12606 -118.17121 4982 ft 158 kts 108°
2026-05-06 01:00 34.12225 -118.15871 4982 ft 158 kts 108°
2026-05-06 01:00 34.11847 -118.14634 4981 ft 158 kts 108°
2026-05-06 01:00 34.11465 -118.13389 4979 ft 158 kts 108°
2026-05-06 01:00 34.11087 -118.12154 4979 ft 158 kts 108°
2026-05-06 01:01 34.10704 -118.10906 4977 ft 158 kts 108°
2026-05-06 01:01 34.10323 -118.09660 4980 ft 157 kts 108°
2026-05-06 01:01 34.09946 -118.08431 4979 ft 157 kts 108°
2026-05-06 01:01 34.09563 -118.07183 4982 ft 157 kts 108°
2026-05-06 01:02 34.09188 -118.05959 4981 ft 157 kts 108°
2026-05-06 01:02 34.08809 -118.04723 4978 ft 157 kts 108°
2026-05-06 01:02 34.08425 -118.03486 4976 ft 157 kts 109°
2026-05-06 01:02 34.08044 -118.02248 4977 ft 157 kts 108°
2026-05-06 01:03 34.07669 -118.01021 4978 ft 157 kts 108°
2026-05-06 01:03 34.07469 -117.99743 4988 ft 154 kts 87°
2026-05-06 01:03 34.07481 -117.98448 4985 ft 154 kts 87°
2026-05-06 01:03 34.07502 -117.97160 4985 ft 154 kts 86°
2026-05-06 01:04 34.07529 -117.95862 4978 ft 155 kts 86°
2026-05-06 01:04 34.07558 -117.94555 4984 ft 155 kts 86°
2026-05-06 01:04 34.07582 -117.93259 4988 ft 155 kts 86°
2026-05-06 01:04 34.07606 -117.91943 4987 ft 155 kts 86°
2026-05-06 01:05 34.07629 -117.90649 4992 ft 155 kts 86°
2026-05-06 01:05 34.07652 -117.89356 4992 ft 156 kts 86°
2026-05-06 01:05 34.07675 -117.88051 4993 ft 154 kts 86°
2026-05-06 01:05 34.07700 -117.86762 4992 ft 153 kts 86°
2026-05-06 01:06 34.07723 -117.85466 4991 ft 152 kts 86°
2026-05-06 01:06 34.07748 -117.84198 4984 ft 152 kts 86°
2026-05-06 01:06 34.07771 -117.82921 4983 ft 152 kts 86°
2026-05-06 01:06 34.07794 -117.81644 4986 ft 151 kts 86°
2026-05-06 01:07 34.07817 -117.80381 4988 ft 151 kts 87°
2026-05-06 01:07 34.07484 -117.79195 4981 ft 152 kts 131°
2026-05-06 01:07 34.06584 -117.78584 4983 ft 150 kts 171°
2026-05-06 01:07 34.05542 -117.78536 4997 ft 148 kts 180°
2026-05-06 01:08 34.04499 -117.78529 4928 ft 154 kts 180°
2026-05-06 01:08 34.03404 -117.78509 4799 ft 161 kts 179°
2026-05-06 01:08 34.02257 -117.78475 4680 ft 165 kts 179°
2026-05-06 01:08 34.01100 -117.78434 4567 ft 164 kts 179°
2026-05-06 01:09 33.99991 -117.78393 4438 ft 157 kts 179°
2026-05-06 01:09 33.98951 -117.78352 4322 ft 141 kts 179°
2026-05-06 01:09 33.97969 -117.78315 4202 ft 145 kts 179°
2026-05-06 01:09 33.96936 -117.78271 4099 ft 149 kts 179°
2026-05-06 01:10 33.95896 -117.78231 4004 ft 151 kts 179°
2026-05-06 01:10 33.94832 -117.78188 3912 ft 151 kts 179°
2026-05-06 01:10 33.93777 -117.78149 3823 ft 151 kts 179°
2026-05-06 01:10 33.92732 -117.78108 3737 ft 150 kts 179°
2026-05-06 01:11 33.91707 -117.78142 3625 ft 147 kts 197°
2026-05-06 01:11 33.90916 -117.78889 3456 ft 145 kts 240°
2026-05-06 01:11 33.90630 -117.79993 3484 ft 134 kts 256°
2026-05-06 01:11 33.90427 -117.81063 3484 ft 129 kts 256°
2026-05-06 01:12 33.90235 -117.82102 3486 ft 126 kts 256°
2026-05-06 01:12 33.90034 -117.83160 3392 ft 131 kts 255°
2026-05-06 01:12 33.89805 -117.84248 3180 ft 142 kts 254°
2026-05-06 01:12 33.89530 -117.85429 2854 ft 149 kts 253°
2026-05-06 01:13 33.89262 -117.86591 2716 ft 142 kts 258°
2026-05-06 01:13 33.89121 -117.87743 2577 ft 137 kts 259°
2026-05-06 01:13 33.88942 -117.88862 2432 ft 134 kts 257°
2026-05-06 01:13 33.88747 -117.89962 2068 ft 136 kts 257°
2026-05-06 01:14 33.88345 -117.92065 1267 ft 111 kts 258°
2026-05-06 01:14 33.88212 -117.92888 919 ft 95 kts 258°
2026-05-06 01:14 33.88071 -117.93655 713 ft 92 kts 254°
2026-05-06 01:15 33.87937 -117.94406 528 ft 96 kts 260°
2026-05-06 01:15 33.87813 -117.95171 438 ft 88 kts 249°
2026-05-06 01:15 33.87643 -117.95851 363 ft 84 kts 251°
2026-05-06 01:15 33.87483 -117.96533 273 ft 85 kts 253°
2026-05-06 01:16 33.87353 -117.97242 278 ft 85 kts 253°
2026-05-06 01:16 33.87237 -117.97909 445 ft 77 kts 253°